Wind_Speed
21 22 17 11 11 14 16 20 25 26 23 28 16 21 18 25 30 32 34 33 36 38 40 43 42 43 48 54 58 66 69 65 60 56 54 55 54 54 53 59 57 52 48 48
24 28 23 12 12 17 18 22 26 30 26 19 20 22 31 37 38 31 24 32 36 38 39 41 45 49 52 59 66 68 66 61 56 53 55 53 57 56 50 55 58 56 51 49
25 28 21 19 19 20 20 22 28 27 25 22 24 29 33 37 30 21 31 32 33 37 40 44 49 52 58 62 61 53 48 46 44 42 50 51 56 58 59 51 55 62 57 52
19 11 10 11 22 20 30 29 26 23 25 16 9 9 15 18 24 24 24 29 34 37 40 43 49 53 53 51 45 43 39 37 38 40 39 46 53 59 61 57 52 56 64 57
24 22 15 15 13 13 24 21 18 20 25 29 19 14 15 29 24 23 24 29 30 30 36 43 45 47 44 42 40 35 35 37 39 37 41 41 50 55 60 61 54 51 59 65
28 20 24 21 19 18 17 20 23 26 24 9 10 16 6 14 20 20 21 22 27 34 38 39 41 41 38 37 38 40 39 37 39 37 42 47 48 51 56 60 58 55 55 63
17 18 18 18 19 21 21 19 6 4 2 5 3 11 15 15 17 19 20 24 29 34 36 38 39 40 37 36 37 37 39 36 30 24 32 44 52 51 51 53 53 57 55 58
17 20 3 11 15 20 22 15 6 5 3 4 24 9 10 16 14 16 20 25 28 31 32 35 38 41 40 38 32 40 45 45 41 30 20 26 38 48 47 50 46 51 52 58
10 15 3 6 12 12 15 20 18 26 26 8 6 11 15 16 15 15 20 23 25 27 31 33 35 38 37 35 35 39 44 45 46 38 23 15 21 33 43 46 44 45 51 52
24 26 23 26 21 18 19 16 9 5 1 4 4 6 10 12 11 16 19 19 21 23 27 29 31 33 35 33 34 33 37 41 41 33 24 13 12 22 41 35 34 34 39 49
16 18 25 25 25 19 18 16 19 17 12 3 2 4 12 12 16 21 18 16 17 20 24 27 28 28 30 31 31 31 30 35 34 26 19 6 9 10 11 17 22 26 25 30
22 14 25 29 29 22 9 13 14 16 7 8 4 8 17 14 17 17 16 13 13 17 21 22 25 27 26 30 33 33 33 33 34 27 13 11 11 15 12 9 14 15 19 23
28 20 12 13 3 2 8 8 5 8 12 11 2 7 18 20 26 23 13 9 10 12 16 18 18 22 26 28 32 34 38 36 31 29 14 8 14 19 23 27 14 13 13 14
26 22 19 14 15 21 28 24 20 14 10 9 14 19 24 25 19 15 12 8 9 10 14 17 17 18 20 24 27 28 33 35 38 34 33 29 29 34 30 28 16 10 11 9
20 25 25 26 28 32 33 35 30 26 27 14 21 26 22 21 21 15 10 8 8 10 13 14 14 15 16 18 22 24 27 29 34 35 36 34 32 35 38 28 21 19 14 11
28 32 31 40 37 32 31 26 27 30 25 25 23 23 18 14 14 13 8 6 8 10 11 12 12 13 13 15 16 18 23 25 27 29 32 36 40 38 37 34 28 20 19 14
24 26 26 27 22 17 20 22 22 26 25 23 24 19 16 14 16 12 9 7 7 8 8 9 10 11 13 14 17 18 20 22 23 25 26 28 30 28 32 33 29 26 23 15
22 21 24 18 15 5 17 9 9 10 14 19 22 19 18 17 14 11 10 8 6 6 8 8 8 10 12 14 15 18 18 19 20 22 21 23 25 24 25 25 26 27 28 27
30 22 19 13 12 14 23 27 17 10 12 13 17 17 14 13 15 13 12 10 7 6 7 8 6 7 10 11 13 16 16 17 18 19 20 21 22 21 23 24 25 26 23 21
26 31 25 7 4 3 5 8 10 9 14 12 16 20 16 17 17 15 14 11 9 5 5 6 6 5 7 8 11 13 14 15 15 17 20 21 20 20 21 22 21 21 19 16
25 26 33 24 11 15 16 15 11 9 12 12 11 14 17 16 17 17 15 13 10 4 4 4 3 4 5 7 9 11 13 14 15 16 17 18 19 21 23 23 21 19 18 18
19 22 26 25 12 14 22 18 17 13 13 15 14 15 16 15 15 18 17 13 8 4 4 3 2 2 5 8 10 12 12 12 14 15 16 17 18 19 19 20 21 21 20 19
25 23 19 16 13 15 10 7 7 11 17 16 17 17 17 17 16 18 17 11 6 5 4 3 1 2 5 7 8 10 12 14 15 18 19 20 21 20 20 20 21 21 23 23
24 21 22 19 20 19 15 18 15 14 15 16 16 18 17 19 21 21 17 10 7 4 4 3 1 3 5 7 8 9 11 14 17 18 19 19 20 21 21 22 22 21 20 21
15 13 20 22 22 19 19 15 13 13 14 14 14 14 15 18 20 19 12 7 5 4 5 3 1 3 4 6 9 10 12 14 16 18 19 22 24 25 25 25 26 26 26 27
20 21 20 19 14 14 15 12 11 12 11 9 8 8 10 13 13 10 8 7 5 6 5 3 1 2 4 7 9 12 15 18 21 23 24 23 24 25 28 30 33 34 35 36
Wind_Direction
299 281 289 292 279 270 278 291 275 276 282 295 278 289 272 271 273 279 287 288 280 276 275 274 280 283 285 289 295 296 295 291 286 277 269 260 258 251 245 247 242 230 226 222
289 280 299 271 287 282 278 270 277 281 285 285 291 280 283 278 277 282 292 286 281 279 277 280 286 292 295 297 298 298 296 291 285 276 268 256 252 248 245 243 240 236 228 221
281 284 292 271 264 287 259 280 296 293 292 289 288 283 276 271 272 275 281 277 281 286 289 294 299 300 300 301 301 299 296 291 288 283 268 258 246 245 243 241 238 235 237 226
282 283 270 270 268 267 270 282 287 288 294 299 285 290 271 252 279 283 276 280 284 289 300 305 305 304 306 305 306 309 306 300 288 283 277 261 248 245 243 239 239 231 235 240
272 273 263 268 259 293 276 272 279 286 288 291 288 262 268 252 263 260 272 282 294 307 311 310 312 315 317 317 319 313 309 305 294 293 274 260 251 244 243 240 237 235 230 235
287 289 280 279 270 264 270 282 281 282 277 274 293 236 259 240 250 264 295 304 313 317 316 320 323 327 324 325 327 325 317 308 298 285 269 256 248 245 242 240 238 236 230 227
306 290 288 282 281 251 250 275 314 297 181 231 288 322 256 267 269 291 305 316 321 320 323 327 331 335 337 338 331 333 324 325 324 302 279 257 248 244 242 243 239 236 234 230
297 304 246 296 288 272 241 212 201 245 228 266 306 282 273 278 292 308 310 321 326 325 331 336 341 344 345 342 337 333 342 340 340 325 297 260 252 247 247 244 247 243 236 232
280 264 262 287 329 283 243 241 269 248 263 286 240 256 277 289 293 300 312 321 325 333 343 345 348 350 348 343 346 344 347 341 340 338 320 281 255 244 242 244 244 244 238 233
265 278 288 283 291 283 253 255 263 246 312 251 237 244 246 280 289 304 309 322 331 349 356 356 355 356 353 353 354 350 353 348 341 338 324 315 293 245 240 246 243 245 244 240
248 268 277 279 288 285 240 255 268 257 243 220 258 254 293 294 292 306 313 321 336 351 359 9 6 5 7 9 4 7 6 359 353 343 317 300 295 267 231 235 245 245 239 238
258 275 284 280 298 274 253 292 268 234 248 230 240 262 292 313 316 298 307 316 338 347 353 8 17 14 15 18 19 20 23 18 12 0 329 276 236 192 175 203 194 199 217 231
273 275 292 314 4 285 219 264 237 253 235 250 186 277 301 303 303 296 297 310 329 338 343 355 6 19 23 27 22 22 31 30 36 49 50 100 134 155 189 177 174 175 186 206
270 248 243 260 277 297 296 290 292 280 262 246 257 289 299 303 298 293 292 292 313 337 340 347 3 15 21 26 22 19 33 29 35 41 54 57 73 83 126 150 151 202 220 240
254 253 255 265 277 282 283 284 283 269 265 254 285 289 298 296 293 285 283 281 310 327 331 337 356 12 22 27 31 19 30 33 33 33 44 52 59 67 86 98 120 121 134 168
259 261 268 277 273 279 281 275 266 263 254 260 277 278 301 294 283 274 271 284 301 313 327 339 354 9 19 32 33 30 31 36 40 39 36 41 41 43 59 72 88 92 90 90
261 266 266 269 283 278 282 277 261 253 255 267 265 288 287 285 287 268 265 273 291 303 317 328 345 1 20 26 36 32 35 36 41 44 41 46 50 49 55 60 66 77 84 84
258 256 251 261 265 258 274 273 291 281 264 262 268 285 292 288 270 267 271 273 278 290 303 317 347 359 16 23 40 38 36 39 43 49 46 48 52 54 55 57 61 61 62 67
243 234 251 225 230 260 275 277 270 261 255 260 268 277 286 279 266 260 267 264 259 272 292 307 335 358 21 25 31 37 26 28 30 35 40 41 44 44 51 53 51 54 55 54
223 230 245 266 257 257 267 277 265 248 258 262 275 279 274 274 264 258 258 257 255 256 279 298 326 353 25 23 26 26 18 16 22 29 27 30 30 33 36 41 42 40 38 37
222 225 232 240 250 262 265 261 258 232 270 285 286 281 288 279 262 251 248 248 251 239 255 282 314 346 2 19 20 19 15 3 15 22 26 23 22 21 25 29 29 28 22 18
233 211 225 232 241 266 253 245 233 258 280 285 276 271 278 282 259 247 250 241 245 237 231 239 235 342 351 2 8 7 6 11 19 21 20 20 18 19 19 16 14 13 11 5
223 221 212 210 221 240 254 255 254 274 280 270 267 271 272 275 264 254 252 231 218 241 228 211 196 355 356 359 4 8 3 14 20 21 19 17 19 15 13 10 5 1 357 353
246 241 222 231 245 252 264 286 278 274 278 282 266 258 258 256 253 246 242 217 214 212 228 223 283 352 354 354 11 20 22 20 19 16 12 10 7 3 1 358 354 351 346 340
254 226 229 244 251 270 280 277 278 284 287 288 278 264 257 252 243 237 217 207 187 181 221 236 321 342 359 15 24 21 17 13 11 7 2 358 354 352 351 348 345 343 340 336
259 264 258 263 274 279 281 282 287 287 281 268 258 255 253 243 232 216 194 163 151 202 222 248 306 15 28 25 19 13 8 4 1 356 351 348 347 346 343 341 340 339 337 334
Height
3116 3112 3111 3112 3112 3111 3109 3107 3107 3108 3110 3107 3107 3104 3102 3097 3094 3094 3093 3089 3085 3083 3082 3078 3075 3071 3068 3064 3056 3048 3040 3035 3030 3027 3027 3027 3029 3033 3034 3038 3048 3051 3054 3058
3112 3106 3109 3108 3108 3108 3106 3105 3104 3102 3105 3104 3101 3098 3096 3091 3087 3086 3087 3083 3079 3077 3075 3071 3066 3062 3056 3048 3040 3032 3023 3014 3009 3007 3006 3009 3012 3017 3021 3024 3033 3040 3041 3046
3105 3102 3105 3104 3103 3104 3104 3103 3102 3100 3097 3098 3097 3092 3088 3082 3083 3082 3081 3078 3075 3071 3068 3063 3058 3052 3043 3035 3027 3017 3008 2999 2994 2992 2989 2991 2994 3000 3006 3011 3017 3026 3031 3034
3101 3099 3097 3097 3098 3102 3098 3101 3099 3097 3095 3093 3094 3086 3081 3079 3079 3078 3076 3074 3070 3067 3062 3056 3049 3042 3033 3023 3014 3003 2996 2989 2984 2981 2977 2977 2980 2982 2990 2997 3002 3010 3019 3023
3095 3096 3095 3093 3094 3097 3096 3095 3094 3093 3092 3089 3086 3089 3073 3074 3075 3072 3072 3069 3066 3062 3057 3051 3043 3032 3022 3011 3003 2995 2988 2982 2975 2970 2966 2964 2965 2969 2973 2981 2990 2996 3004 3012
3090 3091 3090 3088 3090 3092 3092 3091 3090 3089 3087 3082 3080 3082 3072 3071 3070 3070 3068 3065 3061 3056 3051 3044 3035 3023 3014 3004 2994 2986 2979 2973 2965 2958 2953 2951 2951 2954 2960 2966 2975 2983 2990 2998
3089 3088 3087 3086 3082 3085 3087 3088 3087 3086 3083 3078 3075 3076 3070 3068 3067 3067 3064 3062 3057 3052 3045 3036 3026 3016 3006 2995 2988 2979 2970 2962 2952 2946 2940 2938 2939 2943 2948 2952 2963 2968 2977 2983
3089 3081 3082 3082 3080 3080 3080 3084 3084 3083 3081 3075 3073 3070 3066 3066 3065 3064 3061 3057 3051 3047 3040 3030 3019 3010 2999 2990 2982 2974 2959 2947 2939 2937 2930 2926 2928 2933 2938 2944 2950 2956 2963 2971
3087 3080 3080 3081 3078 3079 3079 3079 3078 3075 3074 3072 3068 3066 3065 3062 3061 3061 3058 3054 3049 3044 3035 3026 3019 3008 2999 2991 2979 2971 2957 2943 2932 2928 2928 2922 2922 2924 2929 2933 2940 2946 2954 2963
3084 3078 3076 3075 3075 3078 3077 3077 3076 3074 3074 3070 3064 3064 3060 3060 3060 3058 3057 3052 3047 3041 3035 3026 3018 3009 3001 2992 2981 2971 2959 2945 2933 2925 2922 2921 2919 2920 2922 2926 2935 2940 2946 2954
3081 3078 3073 3073 3073 3074 3073 3071 3071 3070 3068 3067 3067 3061 3058 3059 3058 3055 3053 3049 3044 3039 3035 3026 3019 3011 3004 2995 2986 2975 2963 2951 2936 2927 2921 2919 2918 2918 2919 2925 2932 2936 2941 2951
3078 3074 3069 3067 3067 3069 3068 3067 3065 3065 3064 3062 3061 3059 3056 3056 3055 3053 3051 3047 3042 3038 3035 3027 3021 3014 3007 3000 2991 2979 2968 2958 2944 2931 2929 2920 2915 2915 2921 2925 2928 2931 2939 2946
3072 3072 3069 3064 3065 3062 3063 3063 3062 3062 3061 3058 3059 3054 3054 3053 3053 3050 3048 3044 3041 3037 3034 3029 3024 3017 3011 3003 2995 2986 2973 2966 2957 2943 2937 2928 2916 2914 2917 2924 2931 2934 2942 2948
3067 3066 3066 3065 3065 3065 3062 3062 3061 3061 3059 3054 3054 3051 3049 3050 3049 3047 3045 3042 3039 3036 3033 3029 3023 3019 3013 3007 2999 2991 2981 2974 2965 2957 2947 2941 2930 2918 2917 2923 2933 2939 2942 2947
3064 3059 3061 3060 3059 3060 3059 3057 3057 3054 3054 3051 3050 3048 3046 3045 3045 3044 3043 3040 3038 3034 3032 3028 3024 3020 3015 3010 3004 2996 2989 2981 2972 2966 2958 2948 2937 2938 2929 2929 2930 2937 2945 2948
3058 3054 3056 3052 3054 3054 3051 3050 3048 3046 3046 3046 3045 3043 3042 3041 3042 3041 3040 3038 3036 3034 3030 3028 3024 3021 3017 3013 3007 3001 2994 2988 2981 2975 2967 2959 2951 2943 2936 2935 2939 2943 2946 2948
3053 3051 3051 3046 3049 3048 3045 3041 3039 3038 3039 3041 3040 3040 3039 3039 3039 3038 3037 3036 3034 3032 3029 3027 3024 3022 3017 3014 3009 3005 2998 2993 2988 2981 2978 2971 2965 2962 2956 2953 2952 2951 2947 2949
3047 3048 3049 3045 3047 3044 3040 3037 3036 3034 3034 3034 3035 3036 3036 3035 3035 3035 3034 3034 3032 3031 3029 3026 3023 3021 3017 3015 3011 3007 3003 2998 2994 2989 2986 2982 2976 2973 2968 2964 2961 2957 2955 2953
3041 3043 3043 3041 3038 3037 3035 3033 3033 3031 3031 3032 3032 3033 3033 3032 3032 3032 3031 3031 3031 3029 3027 3026 3023 3020 3017 3015 3011 3007 3005 3001 2996 2992 2989 2986 2982 2980 2975 2970 2966 2962 2963 2961
3033 3036 3039 3035 3035 3035 3030 3028 3028 3029 3028 3029 3030 3028 3029 3029 3028 3029 3028 3029 3029 3028 3026 3024 3022 3019 3017 3015 3012 3009 3006 3002 2999 2994 2991 2987 2985 2981 2978 2975 2971 2969 2968 2969
3028 3029 3031 3033 3033 3029 3027 3027 3027 3029 3028 3024 3026 3026 3025 3025 3026 3025 3024 3025 3026 3026 3024 3023 3021 3019 3017 3015 3012 3010 3007 3003 2998 2996 2993 2990 2987 2983 2978 2975 2975 2974 2973 2970
3025 3025 3026 3029 3031 3026 3020 3022 3024 3023 3021 3020 3020 3021 3021 3021 3021 3020 3020 3021 3022 3023 3023 3021 3020 3018 3017 3013 3010 3008 3007 3004 3000 2997 2993 2991 2987 2984 2982 2979 2976 2974 2972 2972
3018 3018 3020 3022 3019 3016 3017 3017 3019 3020 3019 3017 3016 3015 3016 3017 3017 3016 3017 3017 3019 3021 3020 3019 3019 3017 3015 3014 3010 3007 3005 3002 2999 2995 2992 2989 2987 2985 2982 2979 2976 2972 2969 2968
3010 3012 3013 3016 3013 3014 3014 3015 3014 3014 3013 3011 3011 3011 3012 3012 3012 3013 3013 3014 3015 3017 3018 3017 3017 3016 3014 3012 3010 3007 3004 3001 2997 2994 2993 2991 2988 2986 2983 2979 2977 2976 2976 2975
3009 3009 3009 3010 3010 3010 3010 3010 3009 3008 3007 3006 3006 3006 3007 3008 3009 3010 3011 3012 3013 3015 3016 3016 3015 3014 3012 3010 3008 3006 3004 3001 2997 2995 2993 2989 2985 2982 2979 2977 2975 2973 2971 2968
3005 3005 3006 3007 3007 3006 3006 3005 3005 3004 3004 3003 3003 3003 3004 3006 3008 3009 3010 3011 3013 3015 3015 3014 3013 3013 3011 3009 3007 3004 3001 2998 2994 2991 2989 2987 2985 2981 2976 2972 2967 2963 2960 2957